TimeEDT,TemperatureF,Dew PointF,Humidity,Sea Level PressureIn,VisibilityMPH,Wind Direction,Wind SpeedMPH,Gust SpeedMPH,PrecipitationIn,Events,Conditions,WindDirDegrees,DateUTC
12:00 AM,46.4,42.8,87,30.14,25.0,West,4.6,-,N/A,,Clear,280,2012-09-11 04:00:00
1:00 AM,44.6,41.0,87,30.15,25.0,West,5.8,-,N/A,,Clear,270,2012-09-11 05:00:00
2:00 AM,44.6,41.0,87,30.15,25.0,West,6.9,-,N/A,,Clear,270,2012-09-11 06:00:00
3:00 AM,44.6,41.0,87,30.15,25.0,West,8.1,-,N/A,,Clear,270,2012-09-11 07:00:00
4:00 AM,44.6,41.0,87,30.16,25.0,West,6.9,-,N/A,,Clear,270,2012-09-11 08:00:00
5:00 AM,39.2,39.2,100,30.18,25.0,West,3.5,-,N/A,,Clear,260,2012-09-11 09:00:00
6:00 AM,41.0,41.0,100,30.19,25.0,WSW,4.6,-,N/A,,Clear,250,2012-09-11 10:00:00
7:00 AM,41.0,41.0,100,30.22,25.0,WSW,3.5,-,N/A,,Partly Cloudy,240,2012-09-11 11:00:00
8:00 AM,48.2,42.8,82,30.23,45.0,SW,3.5,-,N/A,,Mostly Cloudy,230,2012-09-11 12:00:00
9:00 AM,51.8,46.4,82,30.23,45.0,SW,3.5,-,N/A,,Mostly Cloudy,220,2012-09-11 13:00:00
10:00 AM,55.4,48.2,77,30.24,45.0,SW,8.1,-,N/A,,Mostly Cloudy,230,2012-09-11 14:00:00
11:00 AM,59.0,50.0,72,30.23,45.0,SW,5.8,-,N/A,,Mostly Cloudy,230,2012-09-11 15:00:00
12:00 PM,64.4,50.0,59,30.22,45.0,SW,6.9,-,N/A,,Scattered Clouds,220,2012-09-11 16:00:00
1:00 PM,68.0,48.2,49,30.21,45.0,SW,5.8,-,N/A,,Mostly Cloudy,220,2012-09-11 17:00:00
2:00 PM,68.0,46.4,46,30.19,45.0,SW,8.1,-,N/A,,Scattered Clouds,230,2012-09-11 18:00:00
3:00 PM,69.8,48.2,46,30.17,45.0,SW,9.2,-,N/A,,Partly Cloudy,230,2012-09-11 19:00:00
4:00 PM,69.8,50.0,49,30.16,45.0,SSW,12.7,21.9,N/A,,Partly Cloudy,210,2012-09-11 20:00:00
5:00 PM,69.8,51.8,53,30.15,45.0,SSW,9.2,-,N/A,,Partly Cloudy,210,2012-09-11 21:00:00
6:00 PM,68.0,51.8,56,30.15,45.0,SSW,8.1,-,N/A,,Partly Cloudy,210,2012-09-11 22:00:00
7:00 PM,64.4,51.8,64,30.16,45.0,SSW,6.9,-,N/A,,Partly Cloudy,210,2012-09-11 23:00:00
8:00 PM,60.8,51.8,72,30.16,25.0,SSW,8.1,-,N/A,,Clear,210,2012-09-12 00:00:00
9:00 PM,62.6,53.6,72,30.18,25.0,SSW,8.1,-,N/A,,Clear,210,2012-09-12 01:00:00
10:00 PM,57.2,53.6,88,30.19,25.0,Calm,Calm,-,N/A,,Clear,0,2012-09-12 02:00:00
11:00 PM,55.4,53.6,94,30.19,25.0,West,2.3,-,N/A,,Clear,270,2012-09-12 03:00:00